[[{"header":{"parameterUnit":"m.s-1","parameterCategory":1,"la1":30.2992,"la2":30.254,"lo1":-89.0895,"lo2":-89.0443,"dy":0.0025,"dx":0.0025,"nx":19,"ny":19,"refTime":"2026-04-26T21:00:00:Z","depth":0,"parameterNumber":2,"parameterNumberName":"U-component_of_WINDS"},"data":[0,0,0,-0.7798,-0.7796,-0.7692,-0.7691,-0.7572,-0.7571,0,0,0,0,0,0,0,0,0,0,0,-0.7838,-0.7838,-0.7798,-0.7795,-0.7692,-0.7691,-0.7572,-0.7571,0,0,0,0,0,0,0,0,0,0,0,-0.7838,-0.7838,-0.7837,-0.7795,-0.7692,-0.7691,-0.7573,-0.7646,0,0,0,0,0,0,0,0,0,0,-0.7744,-0.7791,-0.7838,-0.7837,-0.7795,-0.7692,-0.7691,-0.7649,-0.7641,-0.7626,0,-0.7616,0,-0.7592,-0.7564,-0.7564,0,0,0,-0.7788,-0.7798,-0.7761,-0.7837,-0.7794,-0.7692,-0.7736,-0.7644,-0.7636,-0.7616,-0.7614,-0.7609,-0.759,-0.7564,-0.7563,-0.7503,-0.7503,0,0,-0.7794,-0.7824,-0.7768,-0.7756,-0.7774,-0.774,-0.7733,-0.7639,-0.7639,-0.7613,-0.7606,-0.7588,-0.7563,-0.7562,-0.7503,-0.7503,0,0,0,-0.7815,-0.7829,-0.7794,-0.7762,-0.7742,-0.7737,-0.7729,-0.7643,-0.7629,-0.7605,-0.7587,-0.7562,-0.7561,-0.7503,-0.7503,-0.7538,0,0,0,-0.7818,-0.7841,-0.7797,-0.7815,-0.7744,-0.7691,-0.7736,-0.7636,-0.7624,-0.7587,-0.7562,-0.756,-0.7503,-0.7503,-0.7536,-0.7548,0,0,0,-0.7842,-0.7844,-0.7832,-0.7817,-0.7773,-0.7692,-0.7672,-0.7632,-0.7613,-0.7564,-0.756,-0.7503,-0.7503,-0.7535,-0.7547,-0.7542,0,0,0,-0.7875,-0.7864,-0.7833,-0.7814,-0.7774,-0.7715,-0.7673,-0.7626,-0.7588,-0.7562,-0.7503,-0.7503,-0.7535,-0.7545,-0.7541,-0.7544,-0.7548,0,0,-0.7878,-0.7865,-0.7851,-0.7821,-0.7775,-0.7728,-0.7686,-0.7621,-0.7588,-0.7533,-0.7531,-0.7537,-0.7546,-0.7542,-0.756,-0.7564,0,0,0,-0.7862,-0.7852,-0.7833,-0.7799,-0.7751,-0.7709,-0.7648,-0.7624,-0.7576,-0.7566,-0.7533,-0.7538,-0.7534,-0.7533,-0.7536,-0.7531,-0.7504,-0.7504,-0.7504,-0.791,-0.7869,-0.7843,-0.7789,-0.7757,-0.7694,-0.7663,-0.762,-0.7587,-0.758,-0.7563,-0.7579,-0.758,-0.7582,-0.7577,-0.7561,-0.7561,-0.7561,-0.7562,-0.791,-0.789,-0.7847,-0.7807,-0.7763,-0.7728,-0.7668,-0.7646,-0.7606,-0.7588,-0.7583,-0.7567,-0.7588,-0.7581,-0.7564,-0.7563,-0.7563,-0.7563,-0.7563,-0.7936,-0.792,-0.7892,-0.7838,-0.7802,-0.7747,-0.7712,-0.7673,-0.7636,-0.763,-0.7609,-0.7608,-0.7602,-0.7623,-0.7623,-0.7623,-0.7623,-0.7623,-0.7623,-0.7975,-0.7942,-0.7918,-0.7866,-0.7839,-0.7799,-0.7736,-0.7708,-0.7667,-0.7641,-0.7641,-0.7609,-0.7598,-0.7596,-0.7624,-0.7624,-0.7624,-0.7624,-0.7623,-0.799,-0.7981,-0.7943,-0.7917,-0.7852,-0.7819,-0.777,-0.7716,-0.7688,-0.7671,-0.764,-0.7639,-0.7622,-0.762,-0.7618,-0.765,-0.765,-0.765,-0.765,-0.8013,-0.8001,-0.7954,-0.7914,-0.787,-0.7823,-0.7781,-0.7732,-0.7679,-0.7659,-0.7649,-0.7643,-0.7642,-0.7626,-0.7623,-0.7621,-0.7653,-0.7653,-0.7653,-0.802,-0.8002,-0.7975,-0.7925,-0.7872,-0.7827,-0.7786,-0.7741,-0.7679,-0.7652,-0.7642,-0.7642,-0.7632,-0.7631,-0.7603,-0.76,-0.7594,0,0]},{"header":{"parameterUnit":"m.s-1","parameterCategory":1,"la1":30.2992,"la2":30.254,"lo1":-89.0895,"lo2":-89.0443,"dy":0.0025,"dx":0.0025,"nx":19,"ny":19,"refTime":"2026-04-26T21:00:00:Z","depth":0,"parameterNumber":3,"parameterNumberName":"V-component_of_WINDS"},"data":[0,0,0,3.0826,3.0828,3.0923,3.0923,3.1044,3.1045,0,0,0,0,0,0,0,0,0,0,0,3.0801,3.0802,3.0826,3.0828,3.0923,3.0923,3.1044,3.1045,0,0,0,0,0,0,0,0,0,0,0,3.08,3.0802,3.0803,3.0829,3.0923,3.0923,3.1043,3.0971,0,0,0,0,0,0,0,0,0,0,3.0879,3.086,3.0801,3.0803,3.0829,3.0923,3.0923,3.0968,3.0976,3.1002,0,3.1029,0,3.1039,3.1053,3.1054,0,0,0,3.0825,3.0853,3.0876,3.0803,3.083,3.0923,3.0879,3.0972,3.0981,3.1013,3.103,3.1035,3.1041,3.1054,3.1055,3.1224,3.1225,0,0,3.082,3.0819,3.087,3.0882,3.0871,3.0876,3.0882,3.0978,3.0996,3.1031,3.1038,3.1043,3.1055,3.1056,3.1223,3.1224,0,0,0,3.0807,3.0815,3.0836,3.0878,3.0895,3.0879,3.0886,3.0991,3.0999,3.1039,3.1045,3.1056,3.1057,3.1222,3.1224,3.1271,0,0,0,3.0804,3.0808,3.0834,3.0834,3.0893,3.0945,3.0898,3.0992,3.1003,3.1044,3.1056,3.1058,3.1221,3.1223,3.1268,3.1294,0,0,0,3.0794,3.0806,3.0822,3.0834,3.0875,3.0944,3.0956,3.0994,3.1007,3.1054,3.1059,3.1221,3.1223,3.1265,3.1288,3.1339,0,0,0,3.0781,3.086,3.0822,3.0911,3.0874,3.0973,3.0955,3.1028,3.1074,3.1056,3.1221,3.1224,3.1264,3.1285,3.1336,3.1383,3.1402,0,0,3.0879,3.0871,3.0924,3.0893,3.1,3.0959,3.107,3.1112,3.1115,3.1187,3.1191,3.1269,3.1288,3.1339,3.1509,3.1524,0,0,0,3.0955,3.0993,3.1021,3.1067,3.1103,3.1136,3.1161,3.1176,3.1238,3.1153,3.13,3.1312,3.1341,3.1364,3.1377,3.1403,3.1234,3.1233,3.1233,3.109,3.1094,3.1182,3.1198,3.1242,3.1269,3.1304,3.1329,3.1317,3.1352,3.1373,3.1477,3.1503,3.1513,3.154,3.1397,3.1398,3.1398,3.1398,3.1235,3.129,3.1275,3.1355,3.1358,3.1423,3.1452,3.1441,3.1502,3.146,3.1486,3.1442,3.153,3.1553,3.1401,3.1401,3.14,3.14,3.14,3.1325,3.1352,3.1372,3.1441,3.1492,3.1503,3.1564,3.1562,3.1561,3.1587,3.161,3.1609,3.1609,3.1598,3.1598,3.1599,3.1599,3.1599,3.16,3.1411,3.1432,3.1485,3.1532,3.1562,3.1601,3.1629,3.1658,3.1689,3.1683,3.1683,3.1668,3.1538,3.1506,3.1605,3.1604,3.1603,3.1603,3.1603,3.1558,3.1525,3.1607,3.1638,3.1693,3.1744,3.1743,3.1801,3.1824,3.1854,3.1834,3.1737,3.1728,3.1718,3.1691,3.1832,3.1832,3.1832,3.1832,3.1635,3.1631,3.1716,3.1765,3.1813,3.182,3.1911,3.1933,3.195,3.1964,3.1943,3.1907,3.1897,3.1894,3.188,3.1855,3.2035,3.2035,3.2035,3.1726,3.1727,3.1806,3.1826,3.1869,3.1905,3.199,3.2045,3.2057,3.2043,3.1975,3.1967,3.1909,3.189,3.1875,3.1853,3.1808,0,0]}]]